Погода в Ломбок-Кута

Индонезия     8°52′14″S   116°16′50″E
темп.,
°C
ветер,
м/с
пор.,
м/с
влажн.,
%
обл.,
%
осадки,
мм/ч
давл.,
гПа
погр.,
м
2 марта, вт
вт223:00+25с1178100 0.0 101126
02:00+24ссз118190 0.0 100930
05:00+23ссв11871 0.2 100828
08:00+26с01771 0.2 1010157
11:00+31зюз23580 0.0 10101031
14:00+31зюз55591 0.6 1008872
17:00+30з466539 0.6 1007568
20:00+25сз228456 1.3 101045
3 марта, ср
ср323:00+24с118236 0.3 101128
02:00+23ссз117918 0.3 100927
05:00+23с11820 0.0 100925
08:00+26ссв11740 0.0 1011146
11:00+31зюз23582 0.0 10111103
14:00+31зюз44584 0.1 10091073
17:00+29зюз2267100 0.1 1008739
20:00+25всв119088 1.4 101027
4 марта, чт
чт423:00+24сз129166 0.2 101127
02:00+23ссз239281 0.6 101073
05:00+23ссз2393100 0.0 101056
08:00+26ссз248598 0.0 1011229
11:00+30з465956 0.0 10111135
14:00+31зюз465778 0.0 10091374
17:00+29зюз3468100 0.0 1008933
20:00+25ссз2381100 0.3 101052
5 марта, пт
пт523:00+24ссз2385100 0.1 101195
02:00+24сз3485100 0.1 1009105
05:00+24зсз2387100 0.9 100991
08:00+24ююз1389100 1.9 1011296
11:00+26зюз2579100 0.1 1012486
14:00+28юз3468100 0.1 1009884
17:00+27юз3476100 0.0 1008880
20:00+24сз1186100 0.0 101037
6 марта, сб
сб623:00+23с118999 0.0 101033
02:00+23ссз1188100 0.0 100926
05:00+22ссз1185100 0.0 100926
08:00+25ссз1174100 0.0 1010102
11:00+30зюз235866 0.0 10101057
14:00+31з445832 0.3 10081169
17:00+29юз126460 1.5 1008948
20:00+25в248280 1.7 1010101